Simultaneous Nadir Overpasses (SNOs) Predictions

Prediction of SNOs between AURA and NPP Satellite Orbit:

Table of predicted SNOs for the next 14.0 days since TLE Epoch: 4/15/2014
Index Date (AURA) Time (AURA) Lat,Lon (AURA) SZA (AURA ) Date (NPP) Time (NPP) Lat,Lon (NPP) SZA (NPP ) Distance(km) Time Diff (sec)
1 04/17/2014 08:08:44 -77.34, 123.63 95.12 04/17/2014 08:07:42 -77.35, 123.71 95.08 2.19 62
2 04/17/2014 08:57:58 77.86, -66.55 84.24 04/17/2014 08:58:14 77.87, -66.49 84.21 1.76 16
3 04/20/2014 00:25:09 -77.35,-120.46 96.06 04/20/2014 00:24:43 -77.34,-120.58 96.01 3.04 26
4 04/20/2014 01:14:22 77.91, 49.54 83.25 04/20/2014 01:15:14 77.90, 49.42 83.23 3.01 52
5 04/22/2014 15:52:10 77.12,-173.08 83.31 04/22/2014 15:51:03 77.12,-173.06 83.36 0.44 67
6 04/22/2014
